Weather in Mokva 1-ya

Russia / Kursk Oblast     51°43′13″N   36°05′29″E
temp.,
°C
wind,
m/s
gust,
m/s
humid.,
%
clouds,
%
prec.,
mm/h
press.,
hPa
HPBL,
m
28 september, tue
tue2800:00+8n4989100 0.1 1022445
03:00+7n3794100 0.1 1023284
06:00+8n489298 0.0 1023373
09:00+9nne4890100 0.2 1024518
12:00+9ne4781100 0.3 1025706
15:00+10ne566987 0.4 1026919
18:00+8ne477584 0.1 1028694
21:00+7ne4880100 0.1 1030809
29 september, wed
wed2900:00+7ene4777100 0.0 1031536
03:00+6ne4777100 0.0 1032491
06:00+6ne3778100 0.0 1033451
09:00+7ene57655 0.0 1034646
12:00+10ene45485 0.0 10331191
15:00+12ne45415 0.0 10321337
18:00+9ne36530 0.0 1033382
21:00+7ne356334 0.0 1034148
30 september, thu
thu3000:00+6ene236878 0.0 103485
03:00+5ne1271100 0.0 103434
06:00+4nne22755 0.0 103554
09:00+7ne24624 0.0 1035287
12:00+11ene33494 0.0 1034983
15:00+13ne23479 0.0 10341317
18:00+10ne24616 0.0 1033123
21:00+8ene35710 0.0 1034160
1 october, fri
fri100:00+7ene24740 0.0 103598
03:00+6ene22783 0.0 103548
06:00+5ene22815 0.0 103645
09:00+8e23661 0.0 1036250
12:00+12ese23490 0.0 1036910
15:00+14e23434 0.0 10351232
18:00+12e22545 0.0 103444
21:00+10ese23635 0.0 103561
2 october, sat
sat200:00+8se22695 0.0 103556
03:00+7se22715 0.0 103530
06:00+6se117322 0.0 103518
09:00+9ese226289 0.0 1035194
12:00+13ese235231 0.0 1034769
15:00+14ese345098 0.0 10331219
18:00+12ese3562100 0.0 1032298
21:00+11ese2566100 0.0 1033225